TITAN 3C TRANSTAGE DEB, 19592

Orbit data source: Space-Track

TITAN 3C TRANSTAGE DEB, 19592 is space debris in HEO originally from a launch on Tue, 21 Dec 1965 UTC launched from the Air Force Eastern Test Range (AFETR). Debris objects in space refer to the collection of defunct objects orbiting the Earth. Examples of debris include non-operational satellites, rocket bodies, and fragments generated from explosions, collisions, or faulty payload assembly.

Loading next visibility...
Identifier
19592, 1965-108AA
Orbit
HEO
Country
Flag of USUS
Related business
Manufacturer
Unknown
Mission
Spacecraft
Bus & Motor
Unknown
Mass
Unknown
Launch date (UTC)
1965-12-21 (60 years ago)
Launch vehicle
Unknown
Launch site
Air Force Eastern Test Range (AFETR)
Object type
Payload
Rocket body
Debris
Shape & HBR
Unknown shape, 0.3 m
Radar Cross Section
Medium (>0.1 m² and <1 m²)

Expand to show TLE details & history
Last TLE update: 1 day ago

TLE from 1 day ago
0 TITAN 3C TRANSTAGE DEB
1 19592U 65108AA  25308.23582479  .00000087  00000-0  16491-2 0  9992
2 19592  26.7970 295.1254 6706387  88.2644 348.3348  2.84038699338945
Epoch: 2025-11-04T05:39Z
TLE epoch observation values (Epoch: 2025-11-04T05:39:35.261Z)
Latitude
9.81272°
Longitude
-173.64175°
Altitude
2,716.864 km
Speed
8.29 km/s
True Right ascension
20h 59m 55s
True Declination
9° 46' 03"
Sunlit
Object was in daylight at epoch
Visualization orbit readout
Latitude
Unknown
Longitude
Unknown
Altitude
Unknown
Speed
Unknown
Apparent Right ascension
Unknown
Apparent Declination
Unknown
Sunlit
N/A
Visualization observer readout
Local Sidereal Time
11:32:00
Azimuth
Unknown
Elevation
Unknown
Doppler factor
Unknown
Orbital elements
Apogee altitude
28,813.522 km
Perigee altitude
559.791 km
Semi-major axis
21,064.793 km
Eccentricity
0.67064
Inclination
26.797°
RAAN
295.1254°
Arg. of periapsis
88.2644°
True anomaly
294.18236°
Mean anomaly
348.3348°
Eccentric anomaly
327.9369°
Mean motion
0.70992 °/min
Orbital period
507.1 mins
BSTAR
0.0016491
Loading maneuver chart data...
Computing Atmospheric mass density...

Documentation

Showing up to 5 results
|